Airfield :
LOGIN :

Register | Disclaimer

   EN    FR    IT 

 










Legend :    VFR   Marginal VFR   IFR   Intensive IFR   Very Intensive IFR
Visi :
Ceiling :
>= 8 km
>= 3000ft
5 to 8 km
1000 to 3000 ft
1500m to 5 km
500 to 1000 ft
800 to 1500m
200 to 500 ft
< 800m
< 200 ft
Symbols :   Thunderstorms  Fog  Heavy snow  Heavy precipitations  Wind > 20 kt
SIGMETs :     Misc.  Thunderstorms  Icing  Turbulence  Mountain Waves  Volcanic Ashes







- Airport Elevation : 479 ft
- IATA code : DOL
- Download approach charts


LFRG - Deauville

CURRENT METAR :
  • 190930Z AUTO 06009KT 020V090 CAVOK 02/M04 Q1017 NOSIG

EXPIRED METARs :
  • 190900Z AUTO 07009KT 030V130 CAVOK 01/M04 Q1017 NOSIG
  • 190830Z AUTO 07009KT 040V110 CAVOK 01/M05 Q1017 NOSIG
  • 190800Z AUTO 06010KT 030V090 CAVOK M00/M06 Q1017 BECMG 06015G25KT
  • 190730Z AUTO 07008KT 030V100 CAVOK M00/M06 Q1017 BECMG 06015G25KT
  • 190700Z AUTO 06007KT 020V100 CAVOK M01/M06 Q1017 NOSIG

TAF TAF LFRG
Valid from the 19 at 09:00 until the 19 at 18:00 UTC


190800Z 1909/1918 07012KT CAVOK
ATIS : +33 2 31 65 65 36
No reported NOTAMs for that airfield.



MET'MAP, your aeronautical weather chart ! - Copyright ORBIFLY December 2007 - Disclaimer

ORBIFLY MET'MAP TEAM :

Programming & Development : Alexandra Zaïnal
Concept & Development : Baudouin d'Aumeries
Co-Development & Prog : Marc-Olivier Méhu
Technical & hardware support : Manuel Goepfert

Contact : metmap@orbifly.com




SOURCES & CREDITS :

   NOAA